Regional Weather Roundup
Issued by NWS

Home | Current Version | Previous Version | Graphics & Text | Print | Product List | Glossary Off
Versions: 1 2 3 4 5 6 7 8 9 10 11 12 13 14 15 16 17 18 19 20 21 22 23 24 25 26 27 28 29 30 31 32 33 34 35 36 37 38 39 40 41 42 43 44 45 46 47 48 49 50

000
ASUS43 KBIS 010020
RWRND

NORTH DAKOTA REGIONAL WEATHER ROUNDUP
NATIONAL WEATHER SERVICE BISMARCK ND
600 PM CST SAT JAN 31 2015

NOTE: "FAIR" INDICATES FEW OR NO CLOUDS BELOW 12,000 FEET WITH NO
SIGNIFICANT WEATHER AND/OR OBSTRUCTIONS TO VISIBILITY.


NDZ001>003-009>011-017-010100-
NORTHWEST NORTH DAKOTA

CITY           SKY/WX    TMP DP  RH WIND       PRES   REMARKS
WILLISTON      LGT SNOW   3  -2  78 NE15      30.39R WCI -15
6HR MIN TEMP:   3; 6HR MAX TEMP:  10; 6HR PCP:  0.09;

MINOT          CLOUDY    -1  -9  68 N17       30.43R WCI -22
MINOT AFB      MOCLDY    -4  -9  77 N15       30.45R WCI -25
$$

NDZ018>021-031>035-040>046-010100-
SOUTHWEST NORTH DAKOTA

CITY           SKY/WX    TMP DP  RH WIND       PRES   REMARKS
BISMARCK       LGT SNOW   5   0  79 NE17G24   30.35R WCI -14
6HR MIN TEMP:   7; 6HR MAX TEMP:  16; 6HR PCP: TRACE;

DICKINSON      LGT SNOW   6   1  80 NE21G26   30.21R VSB 1   WCI -14
GARRISON         N/A      0  -6  76 NE9G18    30.37R WCI -15
6HR MIN TEMP:  -1; 6HR MAX TEMP:   8; 6HR PCP:  0.10;

HETTINGER ARPT LGT SNOW  12   9  87 NE14      30.15R FOG     WCI  -3
$$

NDZ004>008-012>016-024-026-027-054-010100-
NORTHEAST NORTH DAKOTA

CITY           SKY/WX    TMP DP  RH WIND       PRES   REMARKS
GRAND FORKS    MOCLDY    -4 -12  68 N18G24    30.47R WCI -26
GRND FRKS AFB  MOCLDY    -5 -13  68 N21       30.48R WCI -29
DEVILS LAKE    PTCLDY    -6 -18  54 NE16      30.42R WCI -28
$$

NDZ022-023-025-028>030-036>039-047>053-010100-
SOUTHEAST NORTH DAKOTA

CITY           SKY/WX    TMP DP  RH WIND       PRES   REMARKS
FARGO          CLOUDY     7  -7  52 N22G28    30.38R WCI -14
6HR MIN TEMP:   7; 6HR MAX TEMP:  14;

JAMESTOWN      CLOUDY     3  -7  63 NE21      30.33R WCI -18
$$



USA.gov is the U.S. government's official web portal to all federal, state and local government web resources and services.